Regional Weather Roundup
Issued by NWS Cleveland, OH

Home | Current Version | Previous Version | Graphics & Text | Print | Product List | Glossary On
Versions: 1 2 3 4 5 6 7 8 9 10 11 12 13 14 15 16 17 18 19 20 21 22 23 24 25 26 27 28 29 30 31 32 33 34 35 36 37 38 39 40 41 42 43 44 45 46 47 48 49 50
000
ASUS41 KCLE 240102
RWRCLE
OHIO REGIONAL WEATHER ROUNDUP
NATIONAL WEATHER SERVICE CLEVELAND, OH
900 PM EDT SAT JUL 23 2016

NOTE: "FAIR" INDICATES FEW OR NO CLOUDS BELOW 12,000 FEET WITH NO
SIGNIFICANT WEATHER AND/OR OBSTRUCTIONS TO VISIBILITY.

OHZ001>008-015>018-024>027-034-035-043-044-240200-
   NORTHWEST OHIO

CITY           SKY/WX    TMP DP  RH WIND       PRES   REMARKS
DEFIANCE       CLOUDY    82  72  71 CALM      29.96R
FINDLAY        CLEAR     85  69  58 W3        29.96R
TOLEDO EXPRESS PTCLDY    80  73  79 S5        29.95R
TOLEDO EXEC    CLEAR     86  68  54 CALM      29.96R
LIMA           MOCLDY    81  76  84 CALM      29.97R
$$

OHZ009>014-019>023-028>033-038-089-240200-
   NORTHEAST OHIO

CITY           SKY/WX    TMP DP  RH WIND       PRES   REMARKS
CLE-HOPKINS    CLOUDY    85  63  47 N6        29.97F
CLE-LAKEFRONT  CLOUDY    80  72  76 NE5       29.94F
CUY CO. ARPT   PTCLDY    81  64  57 CALM      29.97S
LORAIN-ELYRIA  CLEAR     80  63  55 NE3       29.97R
ASHTABULA      CLOUDY    72  67  84 CALM      29.99S
AKRON-CANTON   CLOUDY    82  61  48 N6        29.97S
WOOSTER        CLOUDY    80  67  64 N6        29.98S
MANSFIELD      CLEAR     83  71  67 N3        30.00R
YOUNGSTOWN     MOCLDY    79  60  52 NE5       29.99S
$$

OHZ042-051>053-060>062-070>072-077>081-240200-
  SOUTHWEST OHIO

CITY           SKY/WX    TMP DP  RH WIND       PRES   REMARKS
CINC-COVINGTON PTCLDY    86  73  65 NW5       29.97R HX  93
CINC-LUNKEN    MOCLDY    82  76  81 CALM      29.95R
HAMILTON       CLEAR     83  71  67 NW6       29.97R
DAYTON         PTCLDY    83  72  69 W5        29.99R
WRIGHT-PAT AFB PTCLDY    85  74  69 NW5       29.98R HX  92
DAYTON GENERAL CLEAR     86  70  58 NW5       29.97S HX  90
WILMINGTON     PTCLDY    82  76  81 CALM      29.97S
$$

OHZ036-037-039>041-045>050-054>059-063>069-073>076-082>088-240200-
  CENTRAL AND SOUTHEAST OHIO

CITY           SKY/WX    TMP DP  RH WIND       PRES   REMARKS
COLUMBUS       MOCLDY    86  70  58 CALM      29.96R HX  90
OSU AIRPORT    CLEAR     85  70  60 CALM      29.97S
BOLTON FIELD   PTCLDY    82  74  75 CALM      29.98S
RICKENBACK AFB PTCLDY    83  74  72 CALM      29.96S HX  90
NEWARK         CLOUDY    82  75  79 CALM      29.96S
MARION         CLEAR     84  71  65 W3        29.98R
LANCASTER      PTCLDY    80  75  84 CALM      29.97S
ZANESVILLE     CLOUDY    86  72  62 CALM      29.97R HX  92
NEW PHILLY     CLOUDY    83  74  74 CALM      29.96S
$$




USA.gov is the U.S. government's official web portal to all federal, state and local government web resources and services.